JST328 YPAD-YSSY

Flight info

Callsign JST328
Flight time 1h 48m
Altitude 39000
Route AVDEN H247 CULIN Y59 RIVET
Aircraft A20N/M-SDE2E3FGHIRWXY/LB1

Departure

Time 2026-04-23 09:57
Airport Adelaide International Airport (YPAD)

Arrival

Time 2026-04-23 11:45
Airport Sydney Kingsford Smith International Airport (YSSY)
Time Latitude Longitude Altitude Speed Heading
2026-04-23 09:14 -34.94132 138.53550 22 ft 0 kts 319°
2026-04-23 09:43 -34.94137 138.53556 22 ft 2 kts 319°
2026-04-23 09:43 -34.94149 138.53568 22 ft 2 kts 317°
2026-04-23 09:43 -34.94159 138.53581 20 ft 2 kts 303°
2026-04-23 09:44 -34.94166 138.53597 20 ft 2 kts 289°
2026-04-23 09:44 -34.94170 138.53614 20 ft 2 kts 275°
2026-04-23 09:44 -34.94170 138.53633 24 ft 2 kts 261°
2026-04-23 09:44 -34.94167 138.53650 23 ft 2 kts 247°
2026-04-23 09:45 -34.94161 138.53664 21 ft 1 kts 235°
2026-04-23 09:45 -34.94159 138.53668 21 ft 0 kts 233°
2026-04-23 09:50 -34.94162 138.53664 21 ft 4 kts 233°
2026-04-23 09:50 -34.94205 138.53634 17 ft 11 kts 181°
2026-04-23 09:50 -34.94291 138.53648 16 ft 13 kts 213°
2026-04-23 09:51 -34.94358 138.53561 16 ft 15 kts 230°
2026-04-23 09:51 -34.94431 138.53452 15 ft 18 kts 231°
2026-04-23 09:51 -34.94509 138.53323 18 ft 19 kts 246°
2026-04-23 09:51 -34.94491 138.53177 20 ft 18 kts 304°
2026-04-23 09:52 -34.94443 138.53040 21 ft 18 kts 260°
2026-04-23 09:52 -34.94517 138.52931 21 ft 18 kts 220°
2026-04-23 09:52 -34.94618 138.52838 23 ft 19 kts 217°
2026-04-23 09:52 -34.94733 138.52733 21 ft 22 kts 217°
2026-04-23 09:53 -34.94841 138.52632 20 ft 15 kts 218°
2026-04-23 09:53 -34.94936 138.52542 17 ft 19 kts 218°
2026-04-23 09:53 -34.95047 138.52435 18 ft 21 kts 218°
2026-04-23 09:53 -34.95169 138.52321 19 ft 23 kts 218°
2026-04-23 09:54 -34.95293 138.52196 20 ft 23 kts 225°
2026-04-23 09:54 -34.95399 138.52043 22 ft 25 kts 231°
2026-04-23 09:54 -34.95507 138.51883 19 ft 24 kts 230°
2026-04-23 09:54 -34.95602 138.51746 18 ft 14 kts 229°
2026-04-23 09:55 -34.95676 138.51654 18 ft 16 kts 212°
2026-04-23 09:55 -34.95770 138.51657 13 ft 9 kts 148°
2026-04-23 09:55 -34.95809 138.51736 12 ft 13 kts 93°
2026-04-23 09:55 -34.95774 138.51835 12 ft 13 kts 51°
2026-04-23 09:56 -34.95713 138.51929 14 ft 16 kts 51°
2026-04-23 09:56 -34.95641 138.52034 17 ft 16 kts 50°
2026-04-23 09:56 -34.95471 138.52274 17 ft 78 kts 49°
2026-04-23 09:56 -34.94950 138.53019 19 ft 151 kts 51°
2026-04-23 09:57 -34.94167 138.54187 175 ft 196 kts 51°
2026-04-23 09:57 -34.93273 138.55539 836 ft 214 kts 51°
2026-04-23 09:57 -34.92286 138.57042 1569 ft 236 kts 50°
2026-04-23 09:57 -34.91189 138.58628 2290 ft 254 kts 49°
2026-04-23 09:58 -34.90019 138.60286 3194 ft 261 kts 50°
2026-04-23 09:58 -34.89126 138.62233 3752 ft 268 kts 74°
2026-04-23 09:58 -34.89038 138.64482 4053 ft 270 kts 103°
2026-04-23 09:58 -34.89843 138.66540 4929 ft 270 kts 122°
2026-04-23 09:59 -34.90520 138.68659 5963 ft 272 kts 99°
2026-04-23 09:59 -34.90630 138.70974 6893 ft 277 kts 89°
2026-04-23 09:59 -34.90580 138.73338 7825 ft 281 kts 88°
2026-04-23 09:59 -34.90557 138.75737 8760 ft 285 kts 90°
2026-04-23 10:00 -34.90599 138.78170 9677 ft 288 kts 92°
2026-04-23 10:00 -34.90691 138.80656 10341 ft 304 kts 93°
2026-04-23 10:00 -34.90818 138.83325 10676 ft 327 kts 94°
2026-04-23 10:00 -34.90967 138.86171 11162 ft 342 kts 94°
2026-04-23 10:01 -34.91121 138.89080 11979 ft 346 kts 94°
2026-04-23 10:01 -34.91274 138.92022 12794 ft 350 kts 94°
2026-04-23 10:01 -34.91428 138.95000 13565 ft 355 kts 94°
2026-04-23 10:01 -34.91581 138.98023 14320 ft 359 kts 94°
2026-04-23 10:02 -34.91734 139.01070 15082 ft 362 kts 94°
2026-04-23 10:02 -34.91889 139.04154 15792 ft 367 kts 94°
2026-04-23 10:02 -34.92044 139.07276 16496 ft 370 kts 93°
2026-04-23 10:02 -34.92200 139.10420 17185 ft 374 kts 93°
2026-04-23 10:03 -34.92356 139.13593 17851 ft 377 kts 93°
2026-04-23 10:03 -34.92513 139.16803 18498 ft 381 kts 93°
2026-04-23 10:03 -34.92671 139.20036 19141 ft 384 kts 93°
2026-04-23 10:03 -34.92829 139.23298 19752 ft 387 kts 93°
2026-04-23 10:04 -34.92988 139.26590 20353 ft 391 kts 93°
2026-04-23 10:04 -34.93147 139.29910 20930 ft 394 kts 93°
2026-04-23 10:04 -34.93307 139.33257 21500 ft 398 kts 93°
2026-04-23 10:04 -34.93468 139.36644 22038 ft 402 kts 93°
2026-04-23 10:05 -34.93629 139.40056 22574 ft 405 kts 93°
2026-04-23 10:05 -34.93790 139.43496 23107 ft 408 kts 93°
2026-04-23 10:05 -34.93952 139.46973 23616 ft 412 kts 93°
2026-04-23 10:05 -34.94114 139.50471 23745 ft 413 kts 93°
2026-04-23 10:06 -34.94273 139.53928 23910 ft 416 kts 93°
2026-04-23 10:06 -34.94434 139.57454 24459 ft 417 kts 93°
2026-04-23 10:06 -34.94595 139.60994 24961 ft 420 kts 93°
2026-04-23 10:06 -34.94755 139.64558 25414 ft 423 kts 93°
2026-04-23 10:07 -34.94916 139.68159 25858 ft 426 kts 93°
2026-04-23 10:07 -34.95076 139.71775 26293 ft 429 kts 93°
2026-04-23 10:07 -34.95238 139.75416 26710 ft 432 kts 93°
2026-04-23 10:07 -34.95399 139.79078 27117 ft 434 kts 93°
2026-04-23 10:08 -34.95560 139.82772 27511 ft 437 kts 93°
2026-04-23 10:08 -34.95721 139.86477 27879 ft 440 kts 93°
2026-04-23 10:08 -34.95881 139.90209 28247 ft 442 kts 93°
2026-04-23 10:09 -34.96202 139.97743 28930 ft 447 kts 93°
2026-04-23 10:09 -34.96362 140.01535 29253 ft 449 kts 93°
2026-04-23 10:09 -34.96521 140.05344 29556 ft 451 kts 93°
2026-04-23 10:09 -34.96680 140.09170 29867 ft 453 kts 93°
2026-04-23 10:10 -34.96839 140.13017 30175 ft 456 kts 93°
2026-04-23 10:10 -34.96997 140.16884 30487 ft 458 kts 93°
2026-04-23 10:10 -34.97154 140.20767 30786 ft 460 kts 92°
2026-04-23 10:10 -34.97309 140.24621 31085 ft 462 kts 92°
2026-04-23 10:11 -34.97465 140.28534 31448 ft 462 kts 92°
2026-04-23 10:11 -34.97620 140.32439 31836 ft 461 kts 92°
2026-04-23 10:11 -34.97728 140.36343 32218 ft 460 kts 90°
2026-04-23 10:11 -34.97745 140.40243 32586 ft 459 kts 90°
2026-04-23 10:12 -34.97780 140.44132 32940 ft 459 kts 90°
2026-04-23 10:12 -34.97819 140.48018 33287 ft 458 kts 90°
2026-04-23 10:12 -34.97854 140.51903 33620 ft 457 kts 90°
2026-04-23 10:12 -34.97886 140.55784 33943 ft 457 kts 90°
2026-04-23 10:13 -34.97915 140.59662 34257 ft 456 kts 90°
2026-04-23 10:13 -34.97941 140.63468 34550 ft 455 kts 90°
2026-04-23 10:13 -34.97967 140.67378 34848 ft 455 kts 90°
2026-04-23 10:13 -34.97990 140.71184 35122 ft 454 kts 90°
2026-04-23 10:14 -34.98013 140.75030 35395 ft 454 kts 90°
2026-04-23 10:14 -34.98034 140.78877 35658 ft 453 kts 90°
2026-04-23 10:14 -34.98054 140.82723 35908 ft 452 kts 90°
2026-04-23 10:14 -34.98073 140.86557 36151 ft 452 kts 90°
2026-04-23 10:15 -34.98091 140.90387 36371 ft 452 kts 90°
2026-04-23 10:15 -34.98108 140.94221 36578 ft 452 kts 90°
2026-04-23 10:15 -34.98123 140.98053 36780 ft 452 kts 90°
2026-04-23 10:15 -34.98137 141.01889 36957 ft 452 kts 90°
2026-04-23 10:16 -34.98161 141.09545 37000 ft 450 kts 90°
2026-04-23 10:16 -34.98181 141.17183 37000 ft 450 kts 90°
2026-04-23 10:17 -34.98196 141.24825 37000 ft 451 kts 90°
2026-04-23 10:17 -34.98206 141.32421 37000 ft 451 kts 90°
2026-04-23 10:18 -34.98211 141.40059 37000 ft 451 kts 90°
2026-04-23 10:18 -34.98213 141.47711 37000 ft 451 kts 90°
2026-04-23 10:19 -34.98206 141.55353 37000 ft 451 kts 90°
2026-04-23 10:19 -34.98197 141.62989 37000 ft 450 kts 90°
2026-04-23 10:20 -34.98183 141.70640 37000 ft 451 kts 90°
2026-04-23 10:20 -34.98165 141.78281 37000 ft 451 kts 90°
2026-04-23 10:21 -34.98141 141.85878 37001 ft 451 kts 90°
2026-04-23 10:21 -34.98112 141.93537 37000 ft 451 kts 90°
2026-04-23 10:22 -34.98079 142.01179 37000 ft 451 kts 90°
2026-04-23 10:22 -34.98041 142.08819 37000 ft 451 kts 89°
2026-04-23 10:23 -34.97998 142.16458 37000 ft 451 kts 89°
2026-04-23 10:23 -34.97950 142.24100 37000 ft 451 kts 89°
2026-04-23 10:24 -34.97897 142.31740 37001 ft 451 kts 89°
2026-04-23 10:24 -34.97840 142.39377 37001 ft 451 kts 89°
2026-04-23 10:25 -34.97778 142.47017 37000 ft 451 kts 89°
2026-04-23 10:25 -34.97711 142.54653 37000 ft 451 kts 89°
2026-04-23 10:26 -34.97640 142.62255 37076 ft 452 kts 89°
2026-04-23 10:26 -34.97602 142.66088 37269 ft 452 kts 89°
2026-04-23 10:26 -34.97563 142.69919 37458 ft 452 kts 89°
2026-04-23 10:27 -34.97523 142.73743 37630 ft 452 kts 89°
2026-04-23 10:27 -34.97482 142.77574 37800 ft 452 kts 89°
2026-04-23 10:27 -34.97439 142.81406 37962 ft 452 kts 89°
2026-04-23 10:27 -34.97395 142.85240 38119 ft 452 kts 89°
2026-04-23 10:28 -34.97350 142.89065 38270 ft 452 kts 89°
2026-04-23 10:28 -34.97304 142.92894 38415 ft 452 kts 89°
2026-04-23 10:28 -34.97257 142.96726 38554 ft 452 kts 89°
2026-04-23 10:28 -34.97208 143.00557 38693 ft 452 kts 89°
2026-04-23 10:29 -34.97158 143.04386 38825 ft 452 kts 89°
2026-04-23 10:29 -34.97107 143.08213 38949 ft 452 kts 89°
2026-04-23 10:29 -34.97002 143.15878 39003 ft 451 kts 89°
2026-04-23 10:30 -34.96893 143.23514 39001 ft 451 kts 89°
2026-04-23 10:30 -34.96798 143.31110 39001 ft 451 kts 89°
2026-04-23 10:31 -34.96709 143.38748 39001 ft 451 kts 89°
2026-04-23 10:31 -34.96613 143.46399 39000 ft 451 kts 89°
2026-04-23 10:32 -34.96510 143.54054 39003 ft 451 kts 89°
2026-04-23 10:32 -34.96403 143.61709 39001 ft 451 kts 89°
2026-04-23 10:33 -34.96309 143.68072 38997 ft 451 kts 89°
2026-04-23 10:33 -34.96193 143.75726 38997 ft 451 kts 89°
2026-04-23 10:34 -34.96051 143.84625 39007 ft 452 kts 89°
2026-04-23 10:34 -34.95924 143.92277 39007 ft 452 kts 89°
2026-04-23 10:35 -34.95814 143.98680 38900 ft 449 kts 89°
2026-04-23 10:35 -34.95747 144.02470 38524 ft 446 kts 89°
2026-04-23 10:35 -34.95680 144.06247 37946 ft 445 kts 89°
2026-04-23 10:36 -34.95611 144.10012 37444 ft 441 kts 89°
2026-04-23 10:36 -34.95542 144.13743 37366 ft 442 kts 89°
2026-04-23 10:36 -34.95472 144.17469 37251 ft 449 kts 89°
2026-04-23 10:36 -34.95398 144.21344 37144 ft 452 kts 89°
2026-04-23 10:37 -34.95325 144.25119 37042 ft 451 kts 89°
2026-04-23 10:37 -34.95248 144.28979 37002 ft 450 kts 88°
2026-04-23 10:37 -34.95095 144.36564 37000 ft 451 kts 88°
2026-04-23 10:38 -34.94935 144.44206 37000 ft 451 kts 88°
2026-04-23 10:38 -34.94771 144.51851 37000 ft 451 kts 88°
2026-04-23 10:39 -34.94602 144.59490 37000 ft 451 kts 88°
2026-04-23 10:39 -34.94429 144.67134 37000 ft 451 kts 88°
2026-04-23 10:40 -34.94251 144.74721 37000 ft 451 kts 88°
2026-04-23 10:40 -34.94068 144.82361 37000 ft 451 kts 88°
2026-04-23 10:41 -34.93880 144.89999 37001 ft 451 kts 88°
2026-04-23 10:41 -34.93687 144.97643 37000 ft 451 kts 88°
2026-04-23 10:42 -34.93490 145.05277 37000 ft 451 kts 88°
2026-04-23 10:42 -34.93283 145.12921 37001 ft 451 kts 88°
2026-04-23 10:43 -34.93062 145.20557 37000 ft 451 kts 88°
2026-04-23 10:43 -34.92844 145.28198 37001 ft 451 kts 88°
2026-04-23 10:44 -34.92624 145.35834 37000 ft 451 kts 88°
2026-04-23 10:44 -34.92399 145.43420 37000 ft 451 kts 88°
2026-04-23 10:45 -34.92166 145.51054 37001 ft 451 kts 88°
2026-04-23 10:45 -34.91928 145.58690 37000 ft 451 kts 88°
2026-04-23 10:46 -34.91685 145.66332 37000 ft 451 kts 88°
2026-04-23 10:46 -34.91437 145.73965 37001 ft 451 kts 88°
2026-04-23 10:47 -34.91185 145.81599 37000 ft 451 kts 88°
2026-04-23 10:47 -34.90928 145.89238 37000 ft 451 kts 88°
2026-04-23 10:48 -34.90667 145.96827 37000 ft 451 kts 88°
2026-04-23 10:48 -34.90401 146.04461 37000 ft 451 kts 87°
2026-04-23 10:49 -34.90129 146.12091 37000 ft 451 kts 87°
2026-04-23 10:49 -34.89853 146.19728 37001 ft 451 kts 87°
2026-04-23 10:50 -34.89572 146.27355 37001 ft 451 kts 87°
2026-04-23 10:50 -34.89286 146.34995 37001 ft 451 kts 87°
2026-04-23 10:51 -34.88995 146.42634 36999 ft 451 kts 87°
2026-04-23 10:51 -34.88700 146.50270 36999 ft 451 kts 87°
2026-04-23 10:52 -34.88399 146.57908 37000 ft 451 kts 87°
2026-04-23 10:52 -34.88096 146.65492 37000 ft 451 kts 87°
2026-04-23 10:53 -34.87786 146.73147 37001 ft 451 kts 87°
2026-04-23 10:53 -34.87471 146.80776 37001 ft 451 kts 87°
2026-04-23 10:54 -34.87152 146.88409 37000 ft 451 kts 87°
2026-04-23 10:54 -34.86828 146.96045 37000 ft 451 kts 87°
2026-04-23 10:55 -34.86498 147.03684 37000 ft 451 kts 87°
2026-04-23 10:55 -34.86165 147.11317 36998 ft 451 kts 87°
2026-04-23 10:56 -34.85829 147.18897 36998 ft 451 kts 87°
2026-04-23 10:56 -34.85483 147.26578 36997 ft 451 kts 86°
2026-04-23 10:57 -34.85137 147.34171 36996 ft 451 kts 86°
2026-04-23 10:57 -34.84784 147.41809 36994 ft 452 kts 86°
2026-04-23 10:58 -34.84426 147.49441 36996 ft 452 kts 86°
2026-04-23 10:58 -34.84063 147.57077 36999 ft 452 kts 86°
2026-04-23 10:59 -34.83696 147.64719 36997 ft 452 kts 86°
2026-04-23 10:59 -34.83323 147.72365 37000 ft 452 kts 86°
2026-04-23 11:00 -34.82946 147.80006 37003 ft 452 kts 86°
2026-04-23 11:00 -34.82565 147.87609 37001 ft 453 kts 86°
2026-04-23 11:01 -34.82178 147.95260 36991 ft 453 kts 86°
2026-04-23 11:01 -34.81786 148.02911 36997 ft 453 kts 86°
2026-04-23 11:02 -34.81389 148.10555 37004 ft 453 kts 86°
2026-04-23 11:02 -34.80987 148.18204 36984 ft 453 kts 86°
2026-04-23 11:03 -34.80784 148.22031 36781 ft 453 kts 86°
2026-04-23 11:03 -34.80581 148.25851 36532 ft 451 kts 86°
2026-04-23 11:03 -34.80377 148.29653 36283 ft 450 kts 86°
2026-04-23 11:03 -34.80171 148.33464 36035 ft 451 kts 86°
2026-04-23 11:04 -34.79964 148.37283 35790 ft 452 kts 86°
2026-04-23 11:04 -34.79756 148.41094 35537 ft 452 kts 86°
2026-04-23 11:04 -34.79546 148.44918 35290 ft 453 kts 86°
2026-04-23 11:04 -34.79335 148.48742 35038 ft 454 kts 86°
2026-04-23 11:05 -34.79125 148.52524 34787 ft 455 kts 86°
2026-04-23 11:05 -34.78910 148.56362 34543 ft 455 kts 86°
2026-04-23 11:05 -34.78694 148.60208 34293 ft 456 kts 86°
2026-04-23 11:05 -34.78477 148.64064 34045 ft 456 kts 86°
2026-04-23 11:06 -34.78038 148.71773 33546 ft 458 kts 86°
2026-04-23 11:06 -34.77815 148.75645 33296 ft 459 kts 86°
2026-04-23 11:06 -34.77591 148.79522 33046 ft 458 kts 86°
2026-04-23 11:07 -34.77367 148.83391 32797 ft 459 kts 86°
2026-04-23 11:07 -34.77141 148.87260 32548 ft 459 kts 86°
2026-04-23 11:07 -34.76912 148.91150 32298 ft 460 kts 86°
2026-04-23 11:07 -34.76683 148.95035 32048 ft 461 kts 86°
2026-04-23 11:08 -34.76456 148.98867 31803 ft 461 kts 86°
2026-04-23 11:08 -34.76223 149.02775 31548 ft 462 kts 86°
2026-04-23 11:08 -34.75988 149.06677 31303 ft 463 kts 86°
2026-04-23 11:08 -34.75753 149.10584 31053 ft 463 kts 85°
2026-04-23 11:09 -34.75516 149.14485 30812 ft 463 kts 85°
2026-04-23 11:09 -34.75278 149.18389 30553 ft 462 kts 85°
2026-04-23 11:09 -34.75040 149.22277 30303 ft 460 kts 85°
2026-04-23 11:09 -34.74801 149.26153 30057 ft 458 kts 85°
2026-04-23 11:10 -34.74564 149.30004 29803 ft 456 kts 85°
2026-04-23 11:10 -34.74320 149.33846 29543 ft 455 kts 84°
2026-04-23 11:10 -34.73802 149.37585 29303 ft 453 kts 76°
2026-04-23 11:10 -34.72864 149.41248 29053 ft 452 kts 68°
2026-04-23 11:11 -34.71531 149.44699 28807 ft 450 kts 61°
2026-04-23 11:11 -34.70050 149.48047 28557 ft 448 kts 62°
2026-04-23 11:11 -34.68590 149.51388 28307 ft 446 kts 62°
2026-04-23 11:11 -34.67143 149.54711 28056 ft 444 kts 62°
2026-04-23 11:12 -34.65697 149.58028 27807 ft 443 kts 62°
2026-04-23 11:12 -34.64255 149.61330 27557 ft 442 kts 62°
2026-04-23 11:12 -34.62814 149.64625 27308 ft 440 kts 62°
2026-04-23 11:12 -34.61381 149.67896 27056 ft 438 kts 62°
2026-04-23 11:13 -34.59950 149.71158 26807 ft 437 kts 62°
2026-04-23 11:13 -34.58524 149.74406 26558 ft 435 kts 62°
2026-04-23 11:13 -34.57105 149.77634 26307 ft 433 kts 62°
2026-04-23 11:13 -34.55707 149.80812 26054 ft 432 kts 62°
2026-04-23 11:14 -34.54278 149.84058 25817 ft 430 kts 62°
2026-04-23 11:14 -34.52890 149.87208 25563 ft 428 kts 62°
2026-04-23 11:14 -34.51470 149.90425 25307 ft 426 kts 62°
2026-04-23 11:14 -34.50095 149.93540 24987 ft 424 kts 62°
2026-04-23 11:15 -34.48700 149.96696 24422 ft 424 kts 62°
2026-04-23 11:15 -34.47310 149.99837 23851 ft 420 kts 62°
2026-04-23 11:15 -34.45935 150.02943 23283 ft 416 kts 62°
2026-04-23 11:15 -34.44573 150.06014 22718 ft 411 kts 62°
2026-04-23 11:16 -34.43229 150.09046 22160 ft 406 kts 62°
2026-04-23 11:16 -34.41899 150.12041 21604 ft 402 kts 62°
2026-04-23 11:16 -34.40582 150.15004 21051 ft 397 kts 62°
2026-04-23 11:16 -34.39281 150.17930 20501 ft 393 kts 62°
2026-04-23 11:17 -34.37991 150.20827 19955 ft 389 kts 62°
2026-04-23 11:17 -34.36715 150.23692 19414 ft 385 kts 61°
2026-04-23 11:17 -34.35452 150.26523 18873 ft 381 kts 61°
2026-04-23 11:17 -34.34200 150.29330 18335 ft 377 kts 61°
2026-04-23 11:18 -34.32961 150.32103 17803 ft 373 kts 61°
2026-04-23 11:18 -34.31731 150.34856 17265 ft 370 kts 61°
2026-04-23 11:18 -34.30511 150.37583 16739 ft 367 kts 61°
2026-04-23 11:18 -34.29301 150.40286 16204 ft 364 kts 61°
2026-04-23 11:19 -34.28102 150.42964 15676 ft 361 kts 61°
2026-04-23 11:19 -34.26913 150.45620 15151 ft 358 kts 61°
2026-04-23 11:19 -34.25734 150.48257 14632 ft 355 kts 61°
2026-04-23 11:19 -34.24565 150.50873 14109 ft 352 kts 61°
2026-04-23 11:20 -34.23404 150.53467 13596 ft 349 kts 61°
2026-04-23 11:20 -34.22267 150.56008 13088 ft 346 kts 61°
2026-04-23 11:20 -34.21124 150.58558 12582 ft 343 kts 61°
2026-04-23 11:20 -34.19991 150.61083 12078 ft 341 kts 61°
2026-04-23 11:21 -34.18867 150.63587 11577 ft 338 kts 61°
2026-04-23 11:21 -34.17750 150.66072 11080 ft 335 kts 61°
2026-04-23 11:21 -34.16642 150.68536 10585 ft 333 kts 61°
2026-04-23 11:21 -34.15535 150.70997 9897 ft 336 kts 61°
2026-04-23 11:22 -34.14786 150.72662 9708 ft 329 kts 61°
2026-04-23 11:22 -34.13730 150.75005 9568 ft 315 kts 61°
2026-04-23 11:22 -34.12703 150.77283 9442 ft 302 kts 61°
2026-04-23 11:22 -34.11718 150.79468 9197 ft 293 kts 61°
2026-04-23 11:23 -34.10746 150.81622 8797 ft 291 kts 61°
2026-04-23 11:23 -34.09779 150.83764 8422 ft 288 kts 61°
2026-04-23 11:23 -34.08836 150.85858 8169 ft 282 kts 61°
2026-04-23 11:23 -34.07897 150.87947 7919 ft 284 kts 61°
2026-04-23 11:24 -34.06960 150.90030 7662 ft 281 kts 61°
2026-04-23 11:24 -34.06028 150.92099 7408 ft 281 kts 61°
2026-04-23 11:24 -34.05099 150.94160 7150 ft 279 kts 61°
2026-04-23 11:24 -34.04172 150.96216 6915 ft 278 kts 61°
2026-04-23 11:25 -34.03248 150.98262 6659 ft 277 kts 61°
2026-04-23 11:25 -34.02327 151.00295 6404 ft 276 kts 60°
2026-04-23 11:25 -34.01071 151.02013 6152 ft 274 kts 34°
2026-04-23 11:25 -33.99316 151.02851 5907 ft 273 kts
2026-04-23 11:26 -33.97443 151.02688 5660 ft 271 kts 348°
2026-04-23 11:26 -33.95598 151.02230 5399 ft 269 kts 348°
2026-04-23 11:26 -33.93762 151.01770 5156 ft 269 kts 348°
2026-04-23 11:26 -33.91932 151.01312 4899 ft 268 kts 348°
2026-04-23 11:27 -33.90108 151.00855 4655 ft 267 kts 348°
2026-04-23 11:27 -33.88291 151.00399 4346 ft 266 kts 348°
2026-04-23 11:27 -33.86486 150.99946 4027 ft 264 kts 347°
2026-04-23 11:27 -33.84693 150.99495 3709 ft 264 kts 347°
2026-04-23 11:28 -33.82895 150.99043 3376 ft 262 kts 347°
2026-04-23 11:28 -33.81121 150.98597 3051 ft 260 kts 347°
2026-04-23 11:28 -33.79347 150.98150 2736 ft 260 kts 347°
2026-04-23 11:28 -33.77592 150.97707 2637 ft 259 kts 347°
2026-04-23 11:29 -33.75823 150.97487 2551 ft 260 kts
2026-04-23 11:29 -33.74152 150.98244 2547 ft 260 kts 36°
2026-04-23 11:29 -33.72976 150.99885 2536 ft 262 kts 64°
2026-04-23 11:29 -33.72375 151.01950 2536 ft 262 kts 72°
2026-04-23 11:30 -33.71833 151.04038 2542 ft 262 kts 72°
2026-04-23 11:30 -33.71337 151.06141 2534 ft 262 kts 82°
2026-04-23 11:30 -33.71517 151.08322 2547 ft 262 kts 111°
2026-04-23 11:30 -33.72400 151.10196 2542 ft 262 kts 126°
2026-04-23 11:31 -33.73701 151.11699 2532 ft 261 kts 149°
2026-04-23 11:31 -33.75354 151.12587 2541 ft 260 kts 163°
2026-04-23 11:31 -33.77104 151.13139 2539 ft 260 kts 168°
2026-04-23 11:31 -33.78858 151.13576 2542 ft 251 kts 168°
2026-04-23 11:32 -33.80501 151.13998 2540 ft 232 kts 169°
2026-04-23 11:32 -33.82058 151.14395 2533 ft 231 kts 168°
2026-04-23 11:32 -33.83596 151.14787 2535 ft 220 kts 168°
2026-04-23 11:32 -33.85115 151.15174 2543 ft 224 kts 168°
2026-04-23 11:33 -33.86638 151.15563 2539 ft 224 kts 168°
2026-04-23 11:33 -33.88163 151.15953 2532 ft 224 kts 168°
2026-04-23 11:33 -33.89692 151.16343 2533 ft 224 kts 168°
2026-04-23 11:33 -33.91216 151.16733 2541 ft 224 kts 168°
2026-04-23 11:34 -33.92759 151.17128 2548 ft 231 kts 168°
2026-04-23 11:34 -33.94325 151.17536 2542 ft 229 kts 168°
2026-04-23 11:34 -33.95885 151.17931 2544 ft 229 kts 169°
2026-04-23 11:34 -33.97462 151.18065 2547 ft 228 kts 192°
2026-04-23 11:35 -33.98865 151.17235 2547 ft 227 kts 224°
2026-04-23 11:35 -33.99671 151.15626 2546 ft 227 kts 257°
2026-04-23 11:35 -33.99651 151.13766 2549 ft 227 kts 282°
2026-04-23 11:35 -33.99305 151.11886 2537 ft 227 kts 283°
2026-04-23 11:36 -33.98960 151.10060 2539 ft 227 kts 283°
2026-04-23 11:36 -33.98610 151.08206 2535 ft 227 kts 283°
2026-04-23 11:36 -33.98260 151.06355 2544 ft 227 kts 283°
2026-04-23 11:36 -33.97911 151.04504 2536 ft 226 kts 283°
2026-04-23 11:37 -33.97560 151.02647 2541 ft 227 kts 283°
2026-04-23 11:37 -33.97210 151.00796 2547 ft 227 kts 283°
2026-04-23 11:37 -33.96859 150.98944 2547 ft 227 kts 283°
2026-04-23 11:37 -33.96509 150.97091 2537 ft 227 kts 283°
2026-04-23 11:38 -33.96163 150.95238 2538 ft 227 kts 282°
2026-04-23 11:38 -33.95508 150.93535 2548 ft 227 kts 312°
2026-04-23 11:38 -33.94194 150.92513 2540 ft 228 kts 345°
2026-04-23 11:38 -33.92624 150.92508 2544 ft 229 kts 17°
2026-04-23 11:39 -33.91215 150.93405 2538 ft 230 kts 32°
2026-04-23 11:39 -33.89873 150.94450 2540 ft 230 kts 33°
2026-04-23 11:39 -33.88533 150.95497 2536 ft 230 kts 33°
2026-04-23 11:39 -33.87191 150.96546 2543 ft 230 kts 33°
2026-04-23 11:40 -33.85851 150.97593 2536 ft 230 kts 33°
2026-04-23 11:40 -33.84507 150.98643 2540 ft 230 kts 33°
2026-04-23 11:40 -33.83166 150.99692 2547 ft 230 kts 33°
2026-04-23 11:40 -33.81826 151.00739 2540 ft 230 kts 33°
2026-04-23 11:41 -33.80485 151.01788 2532 ft 230 kts 33°
2026-04-23 11:41 -33.79257 151.03001 2546 ft 230 kts 54°
2026-04-23 11:41 -33.78606 151.04754 2539 ft 231 kts 72°
2026-04-23 11:41 -33.78127 151.06597 2537 ft 231 kts 72°
2026-04-23 11:42 -33.77683 151.08450 2529 ft 231 kts 82°
2026-04-23 11:42 -33.77862 151.10317 2541 ft 231 kts 114°
2026-04-23 11:42 -33.78675 151.11979 2533 ft 231 kts 127°
2026-04-23 11:42 -33.79829 151.13299 2547 ft 230 kts 149°
2026-04-23 11:43 -33.81284 151.14096 2397 ft 231 kts 162°
2026-04-23 11:43 -33.82835 151.14595 2057 ft 230 kts 168°
2026-04-23 11:43 -33.84389 151.14986 1737 ft 227 kts 169°
2026-04-23 11:43 -33.85920 151.15381 1437 ft 219 kts 169°
2026-04-23 11:44 -33.87423 151.15762 1156 ft 227 kts 168°
2026-04-23 11:44 -33.88939 151.16151 847 ft 217 kts 168°
2026-04-23 11:44 -33.90362 151.16514 569 ft 201 kts 168°
2026-04-23 11:44 -33.91664 151.16847 335 ft 181 kts 168°
2026-04-23 11:45 -33.92833 151.17146 89 ft 164 kts 168°
2026-04-23 11:45 -33.93786 151.17381 16 ft 86 kts 168°
2026-04-23 11:45 -33.94086 151.17455 19 ft 31 kts 168°
2026-04-23 11:45 -33.94322 151.17548 27 ft 37 kts 149°
2026-04-23 11:46 -33.94525 151.17729 24 ft 29 kts 126°
2026-04-23 11:46 -33.94539 151.17803 24 ft 2 kts 65°
2026-04-23 11:46 -33.94530 151.17811 25 ft 1 kts 30°
2026-04-23 11:46 -33.94514 151.17817 25 ft 0 kts
2026-04-23 11:47 -33.94513 151.17817 24 ft 1 kts
2026-04-23 11:47 -33.94508 151.17815 23 ft 0 kts 340°
2026-04-23 11:47 -33.94504 151.17813 23 ft 3 kts 340°
2026-04-23 11:48 -33.94488 151.17803 22 ft 5 kts 327°
2026-04-23 11:48 -33.94441 151.17770 25 ft 10 kts 339°
2026-04-23 11:48 -33.94361 151.17741 24 ft 14 kts 345°
2026-04-23 11:48 -33.94252 151.17709 21 ft 16 kts 346°
2026-04-23 11:49 -33.94168 151.17685 24 ft 11 kts 347°
2026-04-23 11:49 -33.94075 151.17657 21 ft 16 kts 345°
2026-04-23 11:49 -33.93948 151.17619 19 ft 21 kts 347°
2026-04-23 11:49 -33.93864 151.17683 18 ft 12 kts 86°
2026-04-23 11:50 -33.93840 151.17792 21 ft 14 kts 72°
2026-04-23 11:50 -33.93810 151.17906 28 ft 14 kts 73°
2026-04-23 11:50 -33.93783 151.18014 30 ft 11 kts 73°
2026-04-23 11:50 -33.93737 151.18080 30 ft 10 kts
2026-04-23 11:51 -33.93710 151.18069 30 ft 8 kts 342°
2026-04-23 11:51 -33.93667 151.18057 30 ft 6 kts 357°
2026-04-23 11:51 -33.93642 151.18035 30 ft 3 kts 257°
2026-04-23 11:51 -33.93643 151.18010 30 ft 2 kts 273°
2026-04-23 11:52 -33.93642 151.18002 30 ft 0 kts 278°